www.pogodaiklimat.ru

Погода и климат >> Архив погоды >> Кувейт >> Al-Salmi


ПОГОДА в Al-Salmi

  • Прогноз погоды в Al-Salmi
  • Монитор погоды в Al-Salmi
  • Климат города

АРХИВ ПОГОДЫ в Al-Salmi

Время (UTC), дата Ветер
(напр.,м/с)
 
Видим.   Явления Облачность Т
(С)
Тd
(С)
f
(%)
Тe
(С)
Тes
(С)
Комфортность P
(гПа)
Po
(гПа)
Тmin
(С)
Tmax
(С)
R
(мм)
R24
(мм)
S
(см)
03 16.09 СЗ 4-6
{10}
10 км н/о +29.2 +8.4 27 +29 +29 жарко 1007.4 1007.0
06 16.09 С 6-8
{10}
16 км н/о +35.3 +9.4 21 +34 +34 очень
жарко
1007.2 1007.0
09 16.09 С 6-9
{9}
13 км н/о +41.7 +9.1 14 +40 +40 очень
жарко
1004.9 1005.0
12 16.09 СЗ 7-11
{11}
18 км н/о +43.3 +6.6 11 +41 +41 опасность
перегрева
1003.5 1004.0
15 16.09 С 6-8
{11}
5000 м дым н/о +40.2 +3.8 11 +37 +37 очень
жарко
1004.0 1004.0
18 16.09 СЗ 4-5
{11}
5000 м дым н/о +34.2 +3.8 15 +31 +31 жарко 1005.9 1006.0
21 16.09 СЗ 2 14 км н/о +31.2 +5.5 20 +29 +29 жарко 1005.8 1006.0 +28.4 +44.1
00 17.09 СЗ 5-6
{8}
18 км н/о +29.5 +7.2 25 +29 +29 жарко 1005.1 1005.0
03 17.09 З 2-3
{6}
19 км н/о +27.6 +6.0 25 +27 +27 жарко 1005.9 1006.0
06 17.09 С 6-8
{8}
19 км н/о +36.2 +9.1 19 +35 +35 очень
жарко
1005.6 1006.0
09 17.09 С 7-11
{11}
18 км н/о +42.7 +9.7 14 +41 +41 опасность
перегрева
1003.7 1004.0
12 17.09 С 6-10
{13}
17 км н/о +43.7 +7.1 11 +41 +41 опасность
перегрева
1002.2 1002.0
15 17.09 С 5-7
{11}
18 км н/о +40.3 +4.0 11 +37 +37 очень
жарко
1003.0 1003.0
18 17.09 С 4-5
{11}
15 км н/о +34.8 +4.0 15 +32 +32 жарко 1004.9 1005.0
21 17.09 СЗ 2 15 км н/о +31.2 +4.7 19 +29 +29 жарко 1005.0 1005.0 +27.5 +44.6
00 18.09 С 1-2
{5}
17 км н/о +28.6 +5.7 23 +27 +27 жарко 1004.7 1005.0
03 18.09 штиль 0-1
{4}
17 км н/о +28.0 +6.2 25 +27 +27 жарко 1005.7 1006.0
06 18.09 С 3-5
{5}
16 км н/о +36.5 +9.5 19 +35 +35 очень
жарко
1006.0 1006.0
09 18.09 СВ 4-7
{8}
17 км н/о +44.1 +8.2 12 +42 +42 опасность
перегрева
1003.9 1004.0
12 18.09 СВ 4-7
{10}
18 км н/о +44.8 +4.0 9 +42 +42 опасность
перегрева
1002.6 1003.0
15 18.09 С 3-4
{8}
19 км н/о +40.7 -1.4 7 +37 +37 очень
жарко
1003.6 1004.0
18 18.09 СВ 3-4
{8}
17 км н/о +35.5 -2.1 9 +32 +32 жарко 1005.5 1006.0
21 18.09 В 5 16 км н/о +31.9 -2.2 11 +28 +28 жарко 1005.9 1006.0 +27.1 +45.3
00 19.09 ЮЗ 2-3
{7}
18 км н/о +31.2 -1.9 12 +28 +28 жарко 1005.7 1006.0
03 19.09 Ю 3-5
{5}
16 км н/о +28.2 +3.2 20 +26 +26 жарко 1006.5 1007.0
06 19.09 ЮЗ 3-4
{6}
15 км н/о +38.7 +8.2 16 +37 +37 очень
жарко
1006.3 1006.0
09 19.09 В 2-4
{5}
18 км н/о +44.1 +6.9 11 +42 +42 опасность
перегрева
1004.7 1005.0
12 19.09 СЗ 4-7
{8}
19 км н/о +44.7 +2.6 8 +41 +41 опасность
перегрева
1003.1 1003.0
15 19.09 С 3-3
{6}
17 км н/о +41.1 +7.4 13 +37 +37 очень
жарко
1003.5 1004.0
18 19.09 ЮВ 4-5
{6}
9000 м дымка н/о +35.9 +14.6 28 +37 +37 душно 1005.5 1006.0
21 19.09 ЮВ 3 9000 м дымка н/о +31.9 +17.7 43 +36 +36 очень
душно
1005.1 1005.0 +27.9 +45.7
00 20.09 Ю 3-4
{6}
9000 м дымка н/о +29.0 +17.7 51 +33 +33 очень
душно
1005.1 1005.0
03 20.09 ЮЗ 3-4
{7}
13 км н/о +29.5 +11.5 33 +30 +30 жарко 1006.3 1006.0
06 20.09 ЮЗ 3-4
{7}
12 км н/о +38.5 +10.0 18 +37 +37 очень
жарко
1006.2 1006.0
09 20.09 З 4-6
{7}
19 км н/о +44.3 +7.4 11 +42 +42 опасность
перегрева
1004.7 1005.0
12 20.09 С 5-8
{13}
16 км н/о +43.6 +4.9 10 +41 +41 опасность
перегрева
1003.5 1004.0
15 20.09 С 4-5
{8}
18 км н/о +40.3 +2.7 10 +37 +37 очень
жарко
1004.1 1004.0
18 20.09 СВ 4-5
{8}
18 км н/о +35.9 +3.0 13 +33 +33 жарко 1006.0 1006.0
21 20.09 С 2 12 км н/о +31.0 +3.8 18 +29 +29 жарко 1006.3 1006.0 +27.7 +45.4
00 21.09 С 3-3
{6}
15 км н/о +29.0 +3.3 19 +27 +27 жарко 1006.4 1006.0
03 21.09 С 2-3
{4}
9000 м дымка н/о +27.3 +3.5 22 +26 +26 жарко 1007.4 1007.0
06 21.09 СВ 1-2
{4}
8000 м дымка н/о +37.9 +11.2 20 +37 +37 очень
жарко
1007.8 1008.0
09 21.09 СВ 4-7
{8}
18 км н/о +42.6 +7.9 13 +41 +41 опасность
перегрева
1006.7 1007.0
12 21.09 В 2-4
{8}
18 км н/о +43.2 +5.7 10 +40 +40 очень
жарко
1005.4 1005.0
15 21.09 С 3-3
{6}
18 км н/о +39.6 +2.1 10 +36 +36 очень
жарко
1006.0 1006.0
18 21.09 СВ 4-5
{6}
18 км н/о +34.3 +1.6 13 +31 +31 жарко 1007.9 1008.0
21 21.09 ЮВ 4 15 км н/о +33.3 +2.0 14 +30 +30 жарко 1007.9 1008.0 +27.2 +44.1
00 22.09 ЮЗ 2-3
{8}
16 км н/о +31.0 +3.7 18 +29 +29 жарко 1007.5 1008.0
03 22.09 ЮЗ 4-6
{6}
16 км н/о +29.5 +5.8 22 +28 +28 жарко 1008.4 1008.0
06 22.09 ЮЗ 4-6
{6}
15 км н/о +38.3 +8.2 16 +36 +36 очень
жарко
1008.6 1009.0
09 22.09 С 3-7
{9}
16 км н/о +41.6 +8.5 14 +40 +40 очень
жарко
1008.1 1008.0
12 22.09 ЮЗ 1-3
{9}
17 км н/о +43.4 +6.1 11 +41 +41 опасность
перегрева
1005.9 1006.0
15 22.09 ЮВ 1-1
{7}
12 км н/о +41.1 +4.8 11 +38 +38 очень
жарко
1006.2 1006.0
18 22.09 В 4-6
{7}
12 км н/о +35.1 +2.0 12 +32 +32 жарко 1008.1 1008.0
21 22.09 Ю 2 5000 м дым н/о +32.1 +2.4 15 +29 +29 жарко 1008.4 1008.0 +29.0 +43.8

 

Местоположение метеостанции Al-Salmi (Кувейт): широта 29.10 долгота 46.68 высота над уровнем моря 287 м.

В архиве по умолчанию представлена погода в Al-Salmi за последнюю неделю. Архивные данные за месяц целиком и за предыдущие месяцы, начиная с января 2011 года, Вы можете получить, выбрав интересующий диапазон дат из раскрывающегося списка и нажав кнопку "Ввод!".


*Определитесь, кто Вы:
робот инопланетянин человек

Внимание! Время в таблицах - всемирное. Для получения местного времени необходимо прибавить поправку, которая в Al-Salmi равна 3 ч.

Смотрите также архив погоды в соседних городах и на ближайших метеорологических станциях:

Погода в Abraque Al Habari (Кувейт) (38 км)
Погода в Minagish (Кувейт) (83 км)
Погода в Jahra (Кувейт) (99 км)
Погода в Al Qaisumah (Саудовская Аравия) (102 км)
Погода в Sulaibiya (Кувейт) (103 км)
Погода в Jal Aliyah (Кувейт) (104 км)
Погода в Mitribah (Кувейт) (104 км)
Погода в Experimental Farm (Кувейт) (124 км)
Погода в Kuwait (Кувейт) (126 км)
Погода в Sabriyah (Кувейт) (134 км)

Пояснения к столбцам:

Ветер - указаны скорость ветра в м/с - средняя за 10 мин, порывы в срок и между сроками (в фигурных скобках) и направление, откуда дует ветер: С - северный, СВ - северо-восточный, В - восточный, ЮВ - юго-восточный, Ю - южный, ЮЗ - юго-западный, З - западный, СЗ - северо-западный.
Видимость - горизонтальная дальность видимости в метрах или километрах. При видимости от 1 до 10 км при отсутствии осадков обычно наблюдается дымка, при ухудшении видимости до 1 км и менее - туман. В сухую погоду видимость может ухудшаться дымом, пылью или мглою.
Явления - указаны атмосферные явления, наблюдавшиеся в срок или в последний час перед сроком; фигурными скобками обозначены явления, наблюдавшиеся между сроками (за 1-3 часа до срока); квадратными скобками обозначены град или гололедные отложения с указанием их диаметра в мм.
Облачность - указаны через наклонную черту общая и нижняя облачность в баллах и высота нижней границы облаков в метрах; квадратными скобками обозначены формы облаков: Ci - перистые, Cs - перисто-слоистые, Cc - перисто-кучевые, Ac - высококучевые, As - высокослоистые, Sc - слоисто-кучевые, Ns - слоисто-дождевые, Cu - кучевые, Cb - кучево-дождевые. Подробнее классификацию облаков см. в Атласе облаков (PDF).
T - Температура воздуха - температура, измеренная на высоте 2 м над землей.
Td - Температура точки росы - температура, при понижении до которой содержащийся в воздухе водяной пар достигнет насыщения.
f - Относительная влажность воздуха - влажноcть воздуха, измеренная на высоте 2 м над землей.
Te - Эффективная температура - температура, которую ощущает одетый по сезону человек в тени. Характеристика душности погоды. При расчете учитывается влияние влажности воздуха и скорости ветра на теплоощущения человека.
Tes - Эффективная температура на солнце - температура, которую ощущает человек, с поправкой на солнечный нагрев. Характеристика знойности погоды. Зависит от высоты солнца над горизонтом, облачности и скорости ветра. Ночью, в пасмурную погоду, а также при ветре 12 м/с и более поправка равна нулю.
P - Атмосферное давление - приведенное к уровню моря атмосферное давление.
Po - Атмосферное давление - измеренное на уровне метеостанции атмосферное давление.
Tmin - Минимальная температура - минимум температуры воздуха на высоте 2 м над землей.
Tmax - Максимальная температура - максимум температуры воздуха на высоте 2 м над землей.
R - Количество осадков - Количество выпавших осадков за период времени, мм. При наведении курсора мыши на число - период времени, за который выпало указанное количество осадков.
R24 - Количество осадков - Количество выпавших осадков за 24 часа, мм.
S - Снежный покров - Высота снежного покрова, см. При наведении курсора мыши на число - состояние снежного покрова и степень покрытия местности в баллах.